KE0TRL Weather Reports


Display with metric or nautical units.
time (UTC)temp
F
wind
direction
speed
MPH
gust
MPH
rain 1hr
in
rain 24hr
in
rain mn
in
humidity
%
barometer
mb
20260509183402 75 180 4.0 4.0 0.00 0.00 0.01 30 1007.5
20260509182306 76 203 3.0 5.0 0.00 0.00 0.01 31 1007.5
20260509181102 77 225 2.0 3.0 0.00 0.00 0.01 30 1007.1
20260509174702 75 203 6.0 6.0 0.00 0.00 0.01 30 1007.1
20260509173603 74 113 2.0 5.0 0.00 0.00 0.01 29 1007.1
20260509172602 73 203 2.0 4.0 0.00 0.00 0.01 29 1007.1
20260509170402 73 180 1.0 3.0 0.00 0.00 0.01 31 1007.5
20260509165306 73 113 6.0 6.0 0.00 0.00 0.01 30 1007.1
20260509164202 71 158 2.0 3.0 0.00 0.00 0.01 30 1007.1
20260509163003 72 180 2.0 2.0 0.00 0.00 0.01 30 1007.1
20260509162002 71 270 2.0 6.0 0.00 0.00 0.01 32 1007.1
20260509160902 70 203 2.0 4.0 0.00 0.00 0.01 34 1007.1
20260509155702 70 180 3.0 5.0 0.01 0.00 0.01 35 1007.1
20260509154603 69 203 1.0 4.0 0.01 0.00 0.01 35 1007.8
20260509152402 68 315 3.0 3.0 0.00 0.00 0.00 37 1007.8
20260509151202 68 180 3.0 5.0 0.00 0.00 0.00 39 1007.5
20260509150003 67 180 4.0 6.0 0.00 0.00 0.00 40 1007.5
20260509143702 64 180 4.0 4.0 0.00 0.00 0.00 45 1006.8
20260509142602 64 68 2.0 4.0 0.00 0.00 0.00 45 1006.4
20260509141503 63 68 1.0 4.0 0.00 0.00 0.00 50 1006.8
20260509140503 62 45 3.0 4.0 0.00 0.00 0.00 49 1006.4
20260509135402 60 45 3.0 5.0 0.00 0.00 0.00 51 1006.4
20260509134302 58 23 3.0 4.0 0.00 0.00 0.00 54 1006.4
20260509133102 58 68 2.0 5.0 0.00 0.00 0.00 54 1006.4
20260509130802 54 23 3.0 3.0 0.00 0.00 0.00 60 1006.4
20260509125702 54 68 2.0 3.0 0.00 0.00 0.00 56 1006.4
20260509124602 53 68 2.0 3.0 0.00 0.00 0.00 61 1006.4
20260509123502 52 45 3.0 3.0 0.00 0.00 0.00 61 1006.4
20260509122502 50 45 2.0 2.0 0.00 0.00 0.00 63 1006.4
20260509121402 50 68 2.0 2.0 0.00 0.00 0.00 63 1006.4
20260509120302 49 45 2.0 2.0 0.00 0.00 0.00 65 1006.1
20260509114003 49 45 1.0 1.0 0.00 0.00 0.00 65 1005.8
20260509112702 48 45 1.0 2.0 0.00 0.00 0.00 65 1006.1
20260509111603 49 45 1.0 2.0 0.00 0.00 0.00 65 1005.8
20260509110601 49 45 2.0 2.0 0.00 0.00 0.00 65 1005.8
20260509105502 49 45 2.0 2.0 0.00 0.00 0.00 65 1005.8
20260509104108 49 45 2.0 2.0 0.00 0.00 0.00 63 1005.8
20260509103003 49 68 2.0 2.0 0.00 0.00 0.00 63 1005.8
20260509101902 49 45 2.0 3.0 0.00 0.00 0.00 63 1005.8
20260509100702 49 45 2.0 2.0 0.00 0.00 0.00 63 1006.1
20260509095602 49 45 2.0 3.0 0.00 0.00 0.00 63 1005.8
20260509092305 51 68 2.0 2.0 0.00 0.00 0.00 60 1005.8
20260509091202 51 45 2.0 2.0 0.00 0.00 0.00 59 1006.1
20260509085402 51 45 3.0 3.0 0.00 0.00 0.00 59 1005.8
20260509083102 51 45 2.0 3.0 0.00 0.00 0.00 56 1005.8
20260509082002 51 68 2.0 2.0 0.00 0.00 0.00 56 1005.4
20260509080603 51 45 2.0 2.0 0.00 0.00 0.00 55 1005.8
20260509075602 51 45 1.0 2.0 0.00 0.00 0.00 55 1005.8
20260509074502 52 45 2.0 3.0 0.00 0.00 0.00 55 1005.4
20260509073402 53 113 0.0 0.0 0.00 0.00 0.00 54 1005.8
20260509072306 53 90 0.0 0.0 0.00 0.00 0.00 54 1005.8
20260509071203 53 90 0.0 2.0 0.00 0.00 0.00 53 1005.8
20260509065003 54 68 2.0 2.0 0.00 0.00 0.00 51 1005.8
20260509064002 54 23 2.0 2.0 0.00 0.00 0.00 50 1006.1
20260509062902 55 113 0.0 0.0 0.00 0.00 0.00 50 1006.1
20260509061802 56 68 1.0 2.0 0.00 0.00 0.00 49 1005.8
20260509060702 56 158 0.0 2.0 0.00 0.00 0.00 48 1006.1
20260509055602 57 45 2.0 2.0 0.00 0.00 0.00 45 1005.8
20260509054502 59 338 2.0 2.0 0.00 0.00 0.00 44 1006.1
20260509051102 60 203 1.0 2.0 0.00 0.00 0.00 40 1005.8
20260509050003 61 90 2.0 2.0 0.00 0.00 0.00 40 1005.8
20260509044902 61 338 1.0 2.0 0.00 0.00 0.00 39 1005.8
20260509042602 63 0 1.0 2.0 0.00 0.00 0.00 37 1005.4
20260509041503 63 270 3.0 3.0 0.00 0.00 0.00 37 1005.4
20260509035305 63 45 2.0 2.0 0.00 0.00 0.00 37 1005.4
20260509034202 63 0 1.0 2.0 0.00 0.00 0.00 35 1005.8
20260509030802 64 0 2.0 2.0 0.00 0.00 0.00 34 1005.1
20260509025702 64 0 1.0 1.0 0.00 0.00 0.00 34 1005.1
20260509024602 65 270 0.0 2.0 0.00 0.00 0.00 32 1005.1
20260509023502 65 158 2.0 2.0 0.00 0.00 0.00 32 1005.1
20260509022306 66 90 0.0 1.0 0.00 0.00 0.00 30 1004.4
20260509021102 67 45 0.0 1.0 0.00 0.00 0.00 30 1004.4
20260509013903 70 0 0.0 1.0 0.00 0.00 0.00 27 1003.7
20260509011703 72 248 1.0 2.0 0.00 0.00 0.00 25 1003.4
20260509010603 73 180 1.0 4.0 0.00 0.00 0.00 25 1003.7
20260509005502 74 293 1.0 4.0 0.00 0.00 0.00 25 1003.7
20260509004402 74 158 2.0 6.0 0.00 0.00 0.00 27 1003.4
20260509003302 75 225 6.0 6.0 0.00 0.00 0.00 25 1003.4
20260509001003 76 0 8.0 8.0 0.00 0.00 0.00 30 1003.7
20260508235902 76 45 3.0 6.0 0.00 0.00 0.00 31 1003.4
20260508234802 75 23 4.0 6.0 0.00 0.00 0.00 34 1003.4
20260508233702 75 113 2.0 2.0 0.00 0.00 0.00 34 1003.7
20260508231503 74 90 2.0 3.0 0.00 0.00 0.00 32 1003.7
20260508230502 74 45 1.0 3.0 0.00 0.00 0.00 32 1003.7
20260508225403 75 45 2.0 3.0 0.00 0.00 0.00 30 1003.7
20260508224302 75 23 3.0 6.0 0.00 0.00 0.00 31 1003.7
20260508222102 77 45 3.0 4.0 0.00 0.00 0.00 27 1004.1
20260508215902 77 45 5.0 5.0 0.00 0.00 0.00 30 1003.7
20260508214803 79 45 4.0 7.0 0.00 0.00 0.00 27 1004.4
20260508212602 77 23 4.0 8.0 0.00 0.00 0.00 29 1004.1
20260508210302 80 68 4.0 5.0 0.00 0.00 0.00 29 1004.4
20260508205202 78 23 4.0 7.0 0.00 0.00 0.00 29 1004.7
20260508204102 76 23 2.0 7.0 0.00 0.00 0.00 30 1004.7
20260508202902 76 23 6.0 8.0 0.00 0.00 0.00 30 1004.7
20260508201802 77 158 2.0 5.0 0.00 0.00 0.00 30 1005.4
20260508200702 76 45 4.0 4.0 0.00 0.00 0.00 30 1005.4
20260508195602 75 68 3.0 6.0 0.00 0.00 0.00 30 1005.8
20260508194402 77 45 4.0 4.0 0.00 0.00 0.00 29 1005.4
20260508193302 79 45 3.0 7.0 0.00 0.00 0.00 27 1005.8
20260508192202 78 270 3.0 3.0 0.00 0.00 0.00 30 1005.8
20260508191102 76 158 2.0 2.0 0.00 0.00 0.00 30 1005.8